Location: Góry Miechowskie
(50.3599°N, 20.1803°E)
Time: 22:02:46
(UTC+00:00)

Tiros 1 despin weight - Pass Details

Date: 19 September 2024
Orbit: 572 x 614 km, 48.2° (Epoch: 12 October)

Event Time Altitude Azimuth Distance (km) Brightness Sun altitude
Rises 23:33:46 0° 208° (SSW) 2,839 - -37.0°
Reaches altitude 10° 23:36:30 10° 191° (SSW) 1,948 - -36.9°
Maximum altitude 23:39:46 20° 144° (SE) 1,415 - -36.7°
Drops below altitude 10° 23:43:05 10° 97° (E) 1,970 - -36.5°
Exits shadow 23:45:07 - 84° (E) 2,619 ? -36.4°
Sets 23:45:52 0° 81° (E) 2,883 ? -36.3°
